Regional Weather Roundup
Issued by NWS

Home | Current Version | Previous Version | Text Only | Print | Product List | Glossary On
Versions: 1 2 3 4 5 6 7 8 9 10 11 12 13 14 15 16 17 18 19 20 21 22 23 24 25 26 27 28 29 30 31 32 33 34 35 36 37 38 39 40 41 42 43 44 45 46 47 48 49 50
000
ASUS44 KFWD 251415
RWRTX
NORTH TEXAS HOURLY WEATHER ROUNDUP
NATIONAL WEATHER SERVICE FORT WORTH TX
900 AM CDT TUE JUL 25 2017

NOTE: "FAIR" INDICATES FEW OR NO CLOUDS BELOW 12,000 FEET WITH NO
SIGNIFICANT WEATHER AND/OR OBSTRUCTIONS TO VISIBILITY.

TXZ118-119-251500-
DALLAS/FORT WORTH METROPLEX

CITY           SKY/WX    TMP DP  RH WIND       PRES   REMARKS
DFW AIRPORT    MOSUNNY   82  74  76 S12       30.07R
DALLAS LOVE    MOSUNNY   82  73  74 S7        30.08R
FTW MEACHAM    SUNNY     82  75  79 S12       30.07R
DAL-EXECUTIVE  PTSUNNY   80  75  84 VRB7      30.08R
FTW-ALLIANCE   PTSUNNY   81  74  79 S7        30.07R
FTW-NAS-JRB    MOSUNNY   81  73  76 S12       30.08R
FTW-SPINKS     MOSUNNY   81  73  78 S10       30.10R
ARLINGTON      MOSUNNY   80  75  84 S9        30.09R
GRAND PRAIRIE  SUNNY     81  72  74 S9        30.10R
ADDISON        SUNNY     81  73  78 S8        30.09
MESQUITE       PTSUNNY   79  75  89 SE6       30.09S FOG
LANCASTER      CLOUDY    80  74  82 S8        30.10R
$$

TXZ091>094-102>105-117-120-121-131>134-251500-
NORTH CENTRAL TEXAS

CITY           SKY/WX    TMP DP  RH WIND       PRES   REMARKS
SHRMAN/DENISON MOSUNNY   80  74  80 S12       30.09S
GAINESVILLE    SUNNY     80  74  81 SE8       30.10R
BOWIE          SUNNY     80  74  83 SE7       30.08S
BRIDGEPORT     SUNNY     79  72  78 S5        30.09S
DECATUR        SUNNY     79  71  75 S10         N/A
DENTON         MOSUNNY   81  74  79 S10       30.08R
MCKINNEY       SUNNY     81  76  84 S12       30.08S
BONHAM         MOSUNNY   79  73  83 S13       30.09S
GREENVILLE     CLOUDY    82  75  78 S13       30.11R
ROCKWALL       CLOUDY    79  76  89 S9        30.10R
TERRELL        PTSUNNY   82  74  76 S14       30.10S
WAXAHACHIE     MOSUNNY   79  76  90 S8        30.11R
CLEBURNE       MOSUNNY   79  77  94 S9        30.11R
GRANBURY       SUNNY     82  72  72 S7        30.09R
$$

TXZ083>090-098>101-113>116-127>130-139>142-154-155-251500-
WESTERN NORTH TEXAS

CITY           SKY/WX    TMP DP  RH WIND       PRES   REMARKS
WICHITA FALLS  SUNNY     80  70  71 S10       30.05S
WF-KICKAPOO    SUNNY     80  71  74 S12G17    30.08S
VERNON         PTSUNNY   81  67  63 S9        30.07R
ABILENE        SUNNY     80  70  71 S10       30.09R
ABILENE-DYESS  SUNNY     82  70  68 S9        30.07R
GRAHAM         SUNNY     82  69  66 S6        30.07R
BRECKENRIDGE   SUNNY     83  68  61 S12       30.08R
CISCO          SUNNY     77  70  78 S12G18    30.10R
EASTLAND       SUNNY     79  70  74 S8        30.09S
RANGER         SUNNY     77  69  77 S13       30.10R
MINERAL WELLS  SUNNY     78  70  76 S7        30.07R
STEPHENVILLE   SUNNY     78  71  80 S8        30.12S
COMANCHE       SUNNY     78  74  88 S6        30.10R
BROWNWOOD      SUNNY     79  70  73 S9        30.10S
COLEMAN        SUNNY     78  70  77 S7        30.11R
$$

TXZ143>147-156>162-174-175-251500-
CENTRAL TEXAS

CITY           SKY/WX    TMP DP  RH WIND       PRES   REMARKS
WACO           PTSUNNY   82  75  79 S15       30.09R
WACO-TSTC      MOSUNNY   81  75  83 S8        30.10R
WACO-MCGREGOR  MOSUNNY   83  74  74 S15       30.09R
HILLSBORO      PTSUNNY   81  75  81 S14       30.10R
CORSICANA      PTSUNNY   81  76  84 S10       30.12R
MEXIA          CLOUDY    79  75  87 S14G24    30.10S
HEARNE         MOSUNNY   79  78  98 SE7       30.11R
CAMERON        PTSUNNY   81  76  86 S10       30.10R
TEMPLE         PTSUNNY   81  75  83 S16       30.10R
KILLEEN        MOSUNNY   80  73  78 SE15      30.09R
KILLEEN-SKYLRK PTSUNNY   81  74  79 S13       30.10R
FORT HOOD      PTSUNNY   79  73  83 S13       30.07R
HAMILTON       MOSUNNY   80  74  83 S12       30.11S
LAMPASAS       SUNNY     81  74  81 S10       30.10R
$$

TXZ095>097-106>112-122>126-135>138-148>153-164>167-251500-
EAST TEXAS

CITY           SKY/WX    TMP DP  RH WIND       PRES   REMARKS
PARIS            N/A     81  76  84 S9        30.11R
SULPHUR SPRNGS PTSUNNY   82  75  79 SW17      30.12R
MOUNT PLEASANT SUNNY     81  74  79 SW8       30.12R
GILMER         SUNNY     79  75  86 S6        30.11S
MINEOLA        MOSUNNY   81  75  83 S8        30.11R
TYLER          MOSUNNY   82  76  81 SW12      30.11S
LONGVIEW       MOSUNNY   81  77  88 SW12      30.10S
MARSHALL         N/A     79  73  82 SW10      30.14R
ATHENS         CLOUDY    79  75  89 CALM      30.11R
PALESTINE      MOSUNNY   80  76  87 SE3       30.14R
JACKSONVILLE   SUNNY     78  75  90 S7        30.15S
HENDERSON      MOSUNNY   80  75  84 S6        30.14S
CENTER         MOSUNNY   82  79  89 S5        30.14R HX  93
NACOGDOCHES    SUNNY     79  75  89 S5        30.11S
LUFKIN         MOSUNNY   78  75  90 S5        30.13R
$$

SUPPLEMENTAL OBSERVATIONS (NWS FORT WORTH AREA)

CITY           SKY/WX    TMP DP  RH WIND       PRES   REMARKS
DENISON DAM      N/A     81  72  74 S3          N/A
CADDO GRASSLND   N/A     81  73  78 S10         N/A
PAT MAYSE LAKE   N/A     81  79  94 S9          N/A
GREENVILLE       N/A     81  73  78 S12         N/A
CEDAR HILL       N/A     81  73  78 S7          N/A
LBJ GRASSLAND    N/A     81  72  74 S8          N/A
POSSUM KINGDOM   N/A     82  70  65 S7          N/A
GRANBURY         N/A     82  72  69 S9          N/A
COMANCHE         N/A     81  73  78 S9          N/A
MCGREGOR         N/A     82  73  74 S10G18      N/A
TEMPLE           N/A     81  73  78 S10         N/A
LAKE LIMESTONE   N/A     81  75  83 S6          N/A
ATHENS           N/A     81  73  78 S6          N/A
$$

SUPPLEMENTAL OBSERVATIONS (NWS NORMAN AREA)

CITY           SKY/WX    TMP DP  RH WIND       PRES   REMARKS
GOODLETT         N/A     82  66  59 S9        30.07S
ODELL            N/A     81  72  74 S9        30.08R
CROWELL          N/A     82  70  66 S8        30.08S
KNOX CITY        N/A     82  67  59 S9        30.08S
SEYMOUR          N/A     82  68  62 S8        30.08R
MILLERS CREEK    N/A     82  72  69 S10         N/A
$$

SUPPLEMENTAL OBSERVATIONS (NWS SAN ANGELO AREA)

CITY           SKY/WX    TMP DP  RH WIND       PRES   REMARKS
WEINERT          N/A     82  69  66 S9        30.08S
HASKELL          N/A     80  66  62 S8        30.08R
THROCKMORTON     N/A     81  70  69 S6        30.09R
STAMFORD         N/A     82  70  67 S12       30.08S
CLYDE            N/A     79  70  74 S13       30.12S
HAMBY            N/A     81  68  65 S14         N/A
$$

SUPPLEMENTAL OBSERVATIONS (NWS SHREVEPORT AREA)

CITY           SKY/WX    TMP DP  RH WIND       PRES   REMARKS
CLARKSVILLE      N/A     82  73  74 SW3G12      N/A
TEXARKANA        N/A     82  77  83 W3          N/A  HX  91
LINDEN           N/A     82  75  78 W6          N/A
CADDO LAKE       N/A     84  75  74 W6          N/A  HX  92
GILMER           N/A     82  75  78 SW6G14      N/A
HENDERSON        N/A     81  77  89 SW9         N/A
LUFKIN           N/A     82  77  83 MISG        N/A  HX  91
N SABINE NF      N/A     79  77  94 MISG        N/A
S SABINE NF      N/A     81  77  89 W1          N/A
$$

SUPPLEMENTAL OBSERVATIONS ARE A COLLECTION OF AUTOMATED INSTRUMENTS
THAT ARE MAINTAINED BY A VARIETY OF FEDERAL AND STATE AGENCIES.
CERTAIN ELEMENTS...SUCH AS HUMIDITY VALUES AND SUSTAINED WIND
SPEEDS...MAY BE APPROXIMATED.





USA.gov is the U.S. government's official web portal to all federal, state and local government web resources and services.